EUTELSAT 12 WEST A

Last updated on Sat Apr 08 2017 00:17:16 GMT+0000 (Coordinated Universal Time)

1 27508U 02040A 17095.56094411 -.00000275 00000-0 00000-0 0 9995 2 27508 0.0697 18.2831 0006814 357.9573 343.7653 1.00271947 53513
UTC large
Height (km)
Speed (km/s)
/
Latitude / Longitude
Inclination (degrees)
Orbital Period (minutes)
Azimuth
Elevation
Range (km)
Doppler Factor

Next 0 passes for location: London (51.5072 / 0.1276)

Sorry there are no passes over London.
EUTELSAT 12 WEST A